Location: Roland
(31.1349°N, 85.4372°W)
Time: 16:10:42
(UTC+00:00)

Vanguard 2 Rocket - Pass Details

Date: 10 December 2021
Orbit: 554 x 3324 km, 32.9° (Epoch: 16 January)

Event Time Altitude Azimuth Distance (km) Brightness Sun altitude
Rises 01:37:48 0° 283° (WNW) 3,479 10.8 -37.3°
Reaches altitude 10° 01:39:51 10° 282° (WNW) 2,757 10.0 -37.7°
Enters shadow 01:45:11 64° 263° (W) 1,451 7.9 -38.8°
